Вернуться в каталог

COSMOS 2499 DEB

АктивенPO
NORAD 56576·DEBRIS·🇷🇺 Russia

Запущен May 23, 2014 с Plesetsk Cosmodrome

Loading…

Ближайшие Пролёты (ближайшие 24 часа)

TLE

СвежийSource: Space-Track

Эпоха: Sep 13, 2026, 12:58 UTC

1 56576U 14028BK  26256.54067625  .00004685  00000-0  16459-1 0  9999
2 56576  82.4102 185.8913 0199227 112.9964 249.2293 12.89656210171195

Отслеживайте COSMOS 2499 DEB в реальном времени с AllMySat

Download on the App Store